GW3703 Weather Reports


time (UTC)temp
F
wind
direction
speed
knots
gust
knots
rain 1hr
in
rain 24hr
in
rain mn
in
humidity
%
barometer
mb
20260510044553 74 257 0.9 2.6 0.00 0.00 0.00 79 1010.5
20260510043106 74 0 0.9 5.2 0.00 0.00 0.00 80 1010.6
20260510041550 74 257 1.7 3.5 0.00 0.00 0.00 80 1010.3
20260510040057 75 257 1.7 3.5 0.00 0.00 0.00 79 1010.1
20260510034551 75 252 0.0 2.6 0.00 0.00 0.00 79 1010.0
20260510033054 76 0 0.0 0.0 0.00 0.00 0.00 78 1010.0
20260510031556 77 0 0.0 0.0 0.00 0.00 0.00 76 1009.8
20260510030055 77 142 0.0 0.0 0.00 0.00 0.00 75 1009.6
20260510024553 78 0 0.0 0.9 0.00 0.00 0.00 74 1009.2
20260510023054 79 246 0.9 3.5 0.00 0.00 0.00 72 1008.9
20260510021552 80 250 1.7 6.1 0.00 0.00 0.00 71 1008.7
20260510020053 81 281 3.5 8.7 0.00 0.00 0.00 69 1008.5
20260510014559 82 274 6.1 10.4 0.00 0.00 0.00 68 1008.1
20260510013054 83 300 6.1 13.9 0.00 0.00 0.00 66 1008.0
20260510011558 83 271 0.0 0.9 0.00 0.00 0.00 67 1008.1
20260510010057 85 0 0.0 0.0 0.00 0.00 0.00 56 1008.0
20260510004558 86 0 0.0 0.0 0.00 0.00 0.00 56 1008.1
20260510003106 87 0 0.0 0.0 0.00 0.00 0.00 59 1008.1
20260510001555 88 0 0.0 1.7 0.00 0.00 0.00 56 1007.9
20260510000055 88 244 1.7 3.5 0.00 0.00 0.00 53 1007.7
20260509234552 89 244 1.7 3.5 0.00 0.00 0.00 55 1007.7
20260509233056 89 261 0.9 3.5 0.00 0.00 0.00 53 1007.8
20260509231557 89 0 0.0 4.3 0.00 0.00 0.00 53 1007.6
20260509230057 89 250 3.5 7.0 0.00 0.00 0.00 55 1007.5
20260509224559 90 296 2.6 6.1 0.00 0.00 0.00 55 1007.5
20260509223054 90 244 0.0 6.1 0.00 0.00 0.00 54 1007.5
20260509221603 90 246 2.6 5.2 0.00 0.00 0.00 55 1007.6
20260509220055 90 128 0.9 5.2 0.00 0.00 0.00 56 1007.7
20260509214559 90 0 0.0 3.5 0.00 0.00 0.00 53 1007.8
20260509213056 90 0 1.7 4.3 0.00 0.00 0.00 53 1007.9
20260509211558 90 0 1.7 4.3 0.00 0.00 0.00 54 1008.0
20260509210113 90 136 0.9 3.5 0.00 0.00 0.00 56 1008.0
20260509204600 90 81 0.0 4.3 0.00 0.00 0.00 56 1008.1
20260509203056 89 138 1.7 6.1 0.00 0.00 0.00 60 1008.3
20260509201602 89 196 0.0 3.5 0.00 0.00 0.00 62 1008.5
20260509194553 89 59 1.7 4.3 0.00 0.00 0.00 63 1008.8
20260509193053 89 26 0.9 7.0 0.00 0.00 0.00 61 1009.1
20260509191558 88 35 2.6 10.4 0.00 0.00 0.00 63 1009.2
20260509190109 87 35 1.7 6.1 0.00 0.00 0.00 63 1009.2
20260509184552 86 120 2.6 8.7 0.00 0.00 0.00 66 1009.2
20260509183056 86 90 0.9 7.0 0.00 0.00 0.00 68 1009.4
20260509181603 87 47 1.7 7.0 0.00 0.00 0.00 65 1009.5
20260509180100 87 95 2.6 7.8 0.00 0.00 0.00 69 1009.8
20260509174600 87 96 1.7 7.0 0.00 0.00 0.00 64 1009.8
20260509173059 85 63 4.3 9.6 0.00 0.00 0.00 68 1010.2
20260509171602 86 94 1.7 6.1 0.00 0.00 0.00 67 1010.3
20260509170107 84 94 4.3 8.7 0.00 0.00 0.00 72 1010.4
20260509164600 83 136 0.0 7.8 0.00 0.00 0.00 75 1010.5
20260509163058 82 23 0.9 9.6 0.00 0.00 0.00 75 1010.2
20260509161601 82 51 1.7 8.7 0.00 0.00 0.00 74 1010.2
20260509160059 81 344 1.7 6.1 0.00 0.00 0.00 73 1009.8
20260509154555 81 288 3.5 7.8 0.00 0.00 0.00 77 1009.1
20260509153057 80 347 2.6 7.0 0.00 0.00 0.00 77 1010.1
20260509151603 80 341 1.7 7.0 0.00 0.00 0.00 79 1010.5
20260509150058 78 61 0.9 7.0 0.00 0.00 0.00 81 1010.3
20260509144555 77 0 0.9 12.2 0.00 0.00 0.00 82 1010.1
20260509143056 77 279 7.0 10.4 0.00 0.00 0.00 85 1009.0
20260509141557 76 273 5.2 8.7 0.00 0.00 0.00 88 1009.8
20260509134625 75 286 0.0 0.0 0.00 0.00 0.00 89 1010.3
20260509133057 74 34 0.9 2.6 0.00 0.00 0.00 89 1010.1
20260509131554 74 0 0.0 0.0 0.00 0.00 0.00 87 1010.3
20260509130052 74 0 0.0 0.0 0.00 0.00 0.00 89 1009.9
20260509124552 74 0 0.0 0.0 0.00 0.00 0.00 90 1009.9
20260509123055 74 0 0.0 0.9 0.00 0.00 0.00 90 1010.4
20260509121554 74 0 0.0 7.8 0.00 0.00 0.00 91 1010.6
20260509120056 74 103 1.7 5.2 0.00 0.00 0.00 91 1010.6
20260509114552 74 74 1.7 5.2 0.00 0.00 0.00 91 1009.8
20260509113056 73 140 0.9 8.7 0.00 0.00 0.00 92 1009.2
20260509111554 73 172 7.0 13.9 0.00 0.00 0.00 92 1008.0
20260509110053 73 135 3.5 13.0 0.00 0.00 0.00 92 1008.5
20260509104555 73 259 4.3 7.0 0.00 0.00 0.00 92 1009.2
20260509103055 73 0 0.0 8.7 0.00 0.00 0.00 91 1009.8
20260509101601 73 242 3.5 6.1 0.00 0.00 0.00 91 1008.9
20260509100054 73 244 1.7 5.2 0.00 0.00 0.00 91 1009.1
20260509094553 73 0 0.0 2.6 0.00 0.00 0.00 91 1008.7
20260509093059 72 0 0.0 2.6 0.00 0.00 0.00 91 1008.7
20260509091556 72 291 1.7 3.5 0.00 0.00 0.00 91 1008.4
20260509090053 72 0 0.0 0.0 0.00 0.00 0.00 91 1008.4
20260509084555 72 0 0.0 0.0 0.00 0.00 0.00 91 1008.4
20260509083054 72 0 0.0 0.0 0.00 0.00 0.00 91 1008.8
20260509081555 72 0 0.0 0.0 0.00 0.00 0.00 91 1009.3
20260509080050 72 0 0.0 0.0 0.00 0.00 0.00 90 1009.2
20260509074603 72 0 0.9 4.3 0.00 0.00 0.00 90 1009.2
20260509073050 72 0 0.0 2.6 0.00 0.00 0.00 90 1009.0
20260509071606 72 0 0.0 0.0 0.00 0.00 0.00 90 1009.4
20260509070053 72 0 0.9 3.5 0.00 0.00 0.00 89 1009.4
20260509064559 73 0 0.0 5.2 0.00 0.00 0.00 89 1009.5
20260509063052 73 265 0.0 0.0 0.00 0.00 0.00 89 1009.9
20260509061602 73 0 0.0 0.0 0.00 0.00 0.00 89 1010.1
20260509060054 73 0 0.0 0.0 0.00 0.00 0.00 88 1010.0
20260509054555 73 0 0.0 0.0 0.00 0.00 0.00 88 1010.1
20260509053055 73 0 0.0 3.5 0.00 0.00 0.00 88 1010.1
20260509051556 73 244 2.6 7.0 0.00 0.00 0.00 88 1010.1
20260509050105 73 257 2.6 6.1 0.00 0.00 0.00 88 1010.1